This demonstration page uses our WeatherBlox Daily Observations layout. Learn more.

Left ArrowRight Arrow

Hourly Observations for February 29, 2016

Temp ( °F °C ) Dew Point ( °F °C ) Humidity (%) Winds ( mph kmh ) Pressure ( in mb ) Visibility ( mi km ) Precip ( " mm )
12:14 am 00:14 Cloudy 46 8 41 5 82 82 WNW 24 39 29.74 1007 10 16 N/A
12:34 am 00:34 Cloudy 43 6 39 4 87 87 WNW 29 46 29.77 1008 10 16 N/A
12:55 am 00:55 Cloudy 41 5 37 3 87 87 WNW 25 41 29.77 1008 10 16 N/A
1:14 am 01:14 Cloudy 41 5 37 3 87 87 WNW 21 33 29.80 1009 10 16 N/A
1:34 am 01:34 Cloudy 41 5 37 3 87 87 W 23 37 29.80 1009 10 16 N/A
1:55 am 01:55 Cloudy 39 4 36 2 87 87 W 23 37 29.83 1010 10 16 N/A
2:14 am 02:14 Cloudy 39 4 36 2 87 87 WNW 18 30 29.83 1010 5 8 N/A
2:35 am 02:35 Cloudy 39 4 36 2 87 87 WNW 17 28 29.85 1011 10 16 N/A
2:54 am 02:54 Cloudy 39 4 36 2 87 87 WNW 18 30 29.85 1011 10 16 N/A
3:14 am 03:14 Cloudy 37 3 36 2 93 93 WNW 18 30 29.88 1012 10 16 N/A
3:35 am 03:35 Cloudy 37 3 34 1 87 87 WNW 23 37 29.88 1012 10 16 N/A
3:54 am 03:54 Cloudy 37 3 34 1 87 87 WNW 21 33 29.91 1013 7 11 N/A
4:14 am 04:14 Cloudy 37 3 34 1 87 87 WNW 17 28 29.91 1013 10 16 N/A
4:35 am 04:35 Cloudy 37 3 32 undefined 81 81 WNW 21 33 29.91 1013 10 16 N/A
4:54 am 04:54 Cloudy 37 3 32 undefined 81 81 WNW 18 30 29.94 1014 10 16 N/A
5:14 am 05:14 Cloudy 36 2 32 undefined 87 87 WNW 17 28 29.97 1015 10 16 N/A
5:35 am 05:35 Cloudy 36 2 32 undefined 87 87 WNW 16 26 29.97 1015 10 16 N/A
5:54 am 05:54 Cloudy 36 2 30 -1 81 81 WNW 18 30 30.00 1016 10 16 N/A
6:14 am 06:14 Cloudy 36 2 30 -1 81 81 WNW 14 22 30.00 1016 10 16 N/A
6:35 am 06:35 Cloudy 36 2 28 -2 75 75 WNW 13 20 30.00 1016 10 16 N/A
6:54 am 06:54 Cloudy 36 2 30 -1 81 81 W 13 20 30.00 1016 10 16 N/A
7:14 am 07:14 Cloudy 36 2 30 -1 81 81 W 14 22 30.00 1016 10 16 N/A
7:35 am 07:35 Cloudy 36 2 30 -1 81 81 W 13 20 30.03 1017 10 16 N/A
7:54 am 07:54 Cloudy 36 2 28 -2 75 75 W 12 19 30.03 1017 10 16 N/A
8:14 am 08:14 Cloudy 36 2 30 -1 81 81 WNW 10 17 30.06 1018 10 16 N/A
8:35 am 08:35 Cloudy 36 2 30 -1 81 81 W 12 19 30.06 1018 10 16 N/A
8:54 am 08:54 Cloudy 37 3 30 -1 75 75 W 12 19 30.03 1017 10 16 N/A
9:14 am 09:14 Cloudy 37 3 32 undefined 81 81 W 12 19 30.03 1017 10 16 N/A
9:35 am 09:35 Cloudy 37 3 32 undefined 81 81 W 13 20 30.03 1017 10 16 N/A
9:54 am 09:54 Mostly Cloudy 37 3 30 -1 75 75 W 14 22 30.09 1019 10 16 N/A
10:14 am 10:14 Partly Cloudy 39 4 32 undefined 75 75 W 14 22 30.06 1018 10 16 N/A
10:35 am 10:35 Partly Cloudy 39 4 32 undefined 75 75 W 12 19 30.06 1018 10 16 N/A
10:54 am 10:54 Sunny 41 5 32 undefined 70 70 WSW 14 22 30.06 1018 10 16 N/A
11:14 am 11:14 Sunny 41 5 32 undefined 70 70 SSW 15 24 30.03 1017 10 16 N/A
11:35 am 11:35 Sunny 43 6 34 1 71 71 WSW 16 26 30.06 1018 10 16 N/A
11:54 am 11:54 Sunny 45 7 34 1 66 66 SW 13 20 30.06 1018 10 16 N/A
12:14 pm 12:14 Sunny 45 7 34 1 66 66 SW 15 24 30.06 1018 10 16 N/A
12:35 pm 12:35 Sunny 46 8 34 1 62 62 SW 13 20 30.03 1017 10 16 N/A
12:54 pm 12:54 Sunny 46 8 34 1 62 62 SSW 15 24 30.03 1017 10 16 N/A
1:14 pm 13:14 Sunny 48 9 34 1 58 58 WSW 14 22 30.03 1017 10 16 N/A
1:35 pm 13:35 Sunny 48 9 32 undefined 54 54 SW 10 17 30.03 1017 10 16 N/A
1:54 pm 13:54 Sunny 50 10 34 1 54 54 SW 13 20 30.03 1017 10 16 N/A
2:14 pm 14:14 Sunny 50 10 34 1 54 54 SW 15 24 30.03 1017 10 16 N/A
2:35 pm 14:35 Sunny 52 11 34 1 50 50 WSW 16 26 30.00 1016 10 16 N/A
2:54 pm 14:54 Sunny 52 11 32 undefined 47 47 SW 16 26 30.00 1016 10 16 N/A
3:14 pm 15:14 Sunny 54 12 32 undefined 44 44 SW 15 24 29.97 1015 10 16 N/A
3:35 pm 15:35 Sunny 54 12 32 undefined 44 44 SW 16 26 29.97 1015 10 16 N/A
3:54 pm 15:54 Sunny 54 12 32 undefined 44 44 SW 12 19 29.97 1015 10 16 N/A
4:14 pm 16:14 Sunny 54 12 32 undefined 44 44 SW 14 22 29.97 1015 10 16 N/A
4:35 pm 16:35 Sunny 55 13 32 undefined 41 41 WSW 12 19 29.97 1015 10 16 N/A
4:54 pm 16:54 Sunny 54 12 32 undefined 44 44 SSW 13 20 29.97 1015 10 16 N/A
5:14 pm 17:14 Sunny 54 12 30 -1 41 41 SSW 13 20 29.97 1015 10 16 N/A
5:35 pm 17:35 Sunny 54 12 32 undefined 44 44 SW 13 20 29.97 1015 10 16 N/A
5:54 pm 17:54 Sunny 52 11 30 -1 44 44 SW 13 20 30.00 1016 10 16 N/A
6:14 pm 18:14 Sunny 50 10 30 -1 47 47 SW 12 19 30.00 1016 10 16 N/A
6:35 pm 18:35 Clear 50 10 30 -1 47 47 SW 8 13 30.00 1016 10 16 N/A
6:54 pm 18:54 Clear 46 8 32 undefined 57 57 SW 7 11 30.00 1016 10 16 N/A
7:14 pm 19:14 Clear 46 8 32 undefined 57 57 SSW 7 11 30.03 1017 10 16 N/A
7:35 pm 19:35 Clear 46 8 30 -1 53 53 SSW 5 7 30.03 1017 10 16 N/A
7:54 pm 19:54 Clear 46 8 30 -1 53 53 SSW 6 9 30.03 1017 10 16 N/A
8:15 pm 20:15 Clear 45 7 30 -1 57 57 S 7 11 30.03 1017 10 16 N/A
8:34 pm 20:34 Clear 45 7 30 -1 57 57 SSW 5 7 30.03 1017 10 16 N/A
8:54 pm 20:54 Clear 43 6 30 -1 61 61 SW 3 6 30.03 1017 10 16 N/A
9:15 pm 21:15 Clear 41 5 30 -1 66 66 N N/A 30.03 1017 10 16 N/A
9:34 pm 21:34 Clear 37 3 32 undefined 81 81 N N/A 30.03 1017 10 16 N/A
9:54 pm 21:54 Clear 37 3 32 undefined 81 81 N N/A 30.03 1017 10 16 N/A
10:15 pm 22:15 Clear 37 3 30 -1 75 75 SSE 3 6 30.03 1017 10 16 N/A
10:34 pm 22:34 Clear 37 3 30 -1 75 75 SSE 5 7 30.03 1017 10 16 N/A
10:54 pm 22:54 Clear 37 3 30 -1 75 75 SSE 7 11 30.03 1017 10 16 N/A
11:15 pm 23:15 Clear 37 3 30 -1 75 75 S 6 9 30.03 1017 10 16 N/A
11:34 pm 23:34 Clear 41 5 30 -1 66 66 S 7 11 30.00 1016 10 16 N/A
11:54 pm 23:54 Clear 41 5 30 -1 66 66 SSE 6 9 30.00 1016 10 16 N/A

Powered by AerisWeather